Wind_Speed
30 32 34 34 34 35 36 36 34 33 35 39 38 36 34 34 34 31 29 25 22 22
26 29 37 35 34 39 40 39 37 37 37 38 41 42 39 37 37 35 33 31 28 28
13 18 26 32 35 36 38 40 37 37 33 34 37 37 41 41 39 36 38 35 33 32
17 20 23 24 36 38 38 36 40 40 41 42 39 39 39 42 41 37 38 39 39 38
19 20 21 19 26 34 35 35 36 40 39 40 43 43 40 40 40 36 39 40 38 39
21 21 23 24 22 17 27 34 34 38 41 41 40 43 45 43 41 39 39 41 38 40
20 24 25 24 25 25 24 23 32 35 37 38 42 43 44 44 42 40 39 39 40 41
23 24 24 27 27 26 26 26 24 29 39 41 37 37 38 39 40 41 39 39 40 42
27 26 26 25 28 27 30 30 27 25 27 35 36 39 39 41 39 42 42 38 40 41
26 26 27 26 25 31 33 33 31 29 27 28 31 38 39 42 41 33 33 36 35 35
24 25 28 32 31 32 36 35 34 33 30 29 29 31 35 27 18 6 9 20 24 32
27 31 33 34 36 32 33 38 37 31 31 31 31 30 35 33 32 25 28 34 35 32
28 28 32 36 37 36 31 35 37 33 30 33 35 35 34 36 32 32 37 38 41 42
34 30 31 34 37 35 32 29 32 30 32 31 33 35 34 35 36 38 33 35 23 26
Wind_Direction
250 251 251 252 258 260 260 262 261 259 253 252 255 258 258 255 254 256 260 263 263 266
264 266 263 258 259 259 260 262 262 263 254 255 258 260 259 258 257 255 256 259 264 266
287 296 284 265 255 253 254 258 260 258 255 255 257 259 260 257 258 257 257 258 260 262
322 313 315 279 254 253 252 251 254 257 258 258 262 263 258 257 257 256 258 258 260 262
340 336 331 322 271 259 252 251 251 255 253 256 258 261 258 255 252 249 254 258 259 261
337 338 336 334 324 305 274 256 254 255 254 250 250 253 256 255 253 251 250 255 252 259
321 326 329 327 326 319 308 288 265 256 255 249 248 247 248 249 251 249 249 251 256 255
305 310 314 318 319 319 315 308 293 282 262 255 249 244 242 241 243 246 247 250 253 257
295 302 306 309 312 314 312 310 303 292 287 272 256 246 241 239 235 239 241 241 247 254
288 294 297 302 301 305 308 309 306 296 295 286 278 255 250 244 244 241 238 247 248 250
294 294 296 299 298 300 304 305 304 295 287 289 283 263 233 231 218 228 292 294 280 263
293 293 295 295 294 292 296 299 299 288 281 282 278 253 241 232 230 229 233 245 272 267
292 288 288 291 288 288 285 288 295 287 276 280 273 271 265 248 241 217 223 238 243 252
296 287 283 283 283 283 281 278 278 275 276 272 266 268 264 246 231 228 225 232 248 253
Height
830 828 826 826 828 828 828 828 829 829 830 832 833 833 834 834 836 837 838 838 839 839
826 826 823 822 822 822 822 822 823 824 823 824 825 827 828 829 830 832 833 833 834 835
820 819 817 814 813 813 813 813 815 816 817 817 818 818 820 822 823 825 826 828 829 829
816 813 808 803 802 803 805 806 805 807 809 810 811 812 812 813 816 817 818 820 821 822
812 808 805 800 798 799 797 797 799 799 800 802 803 805 805 805 807 808 809 811 813 814
808 805 802 798 796 793 791 790 790 790 789 791 793 795 796 797 798 800 800 802 803 805
805 802 798 795 793 790 787 783 783 782 782 781 782 782 784 786 789 791 792 794 794 795
799 796 793 790 788 785 782 780 777 774 772 773 773 773 774 776 778 782 783 784 786 786
794 790 787 785 782 780 778 776 773 768 765 763 762 762 762 765 766 766 770 771 773 775
789 785 782 779 777 774 771 769 766 761 758 754 753 748 751 754 757 761 763 768 769 769
783 780 777 773 769 767 764 761 758 754 750 746 744 742 738 743 735 752 757 767 770 765
778 774 771 766 762 758 757 753 749 746 741 737 734 735 734 735 733 735 738 748 751 757
772 768 764 759 753 750 747 743 740 735 732 728 723 722 721 722 723 724 727 732 733 732
762 758 754 750 746 741 737 734 731 727 723 719 715 712 711 713 715 714 718 723 722 730